Overview Statistics Trail Chart Weather Telemetry Raw packets
 

This is the latest recevied weather packets stored in our database for station/object KO4ZGL-13. If no packets are shown the sender has not sent any weather packets the latest 10 day(s).

<< 92 93 94 95 96 97 98 >>
Time Temp. Humidity Pressure Rain* Wind** Luminosity Snow
1787958320 25° C 98% 1017.6 hPa 0 mm - 8 W/m² -
1787958016 25° C 98% 1017.5 hPa 0 mm - 9 W/m² -
1787957714 25.56° C 98% 1017.3 hPa 0 mm - 13 W/m² -
1787957410 25.56° C 98% 1017.5 hPa 0 mm - 16 W/m² -
1787957109 25.56° C 98% 1017.3 hPa 0 mm - 19 W/m² -
1787956803 25.56° C 98% 1017.5 hPa 0 mm - 22 W/m² -
1787956498 25.56° C 98% 1017.4 hPa 0 mm - 22 W/m² -
1787956193 26.11° C 98% 1017.3 hPa 0 mm - 20 W/m² -
1787955893 26.11° C 98% 1017.4 hPa 0 mm - 20 W/m² -
1787955589 26.11° C 98% 1017.3 hPa 0 mm - 22 W/m² -
1787955283 26.11° C 98% 1017.4 hPa 0 mm - 23 W/m² -
1787954978 26.11° C 98% 1017.4 hPa 0 mm - 25 W/m² -
1787954674 26.11° C 97% 1017.3 hPa 0 mm - 26 W/m² -
1787954373 26.11° C 97% 1017.2 hPa 0 mm - 27 W/m² -
1787954069 26.11° C 97% 1017.3 hPa 0 mm - 34 W/m² -
1787953767 26.11° C 97% 1017.2 hPa 0 mm - 41 W/m² -
1787953463 26.67° C 97% 1017.3 hPa 0 mm - 47 W/m² -
1787953161 26.67° C 97% 1017.1 hPa 0 mm - 46 W/m² -
1787952859 26.67° C 96% 1017.1 hPa 0 mm - 33 W/m² -
1787952554 26.67° C 96% 1017 hPa 0 mm - 39 W/m² -
1787952253 26.67° C 96% 1017.1 hPa 0 mm - 49 W/m² -
1787951949 26.67° C 96% 1016.9 hPa 0 mm - 58 W/m² -
1787951645 26.67° C 96% 1016.9 hPa 0 mm - 53 W/m² -
1787951341 26.67° C 96% 1017 hPa 0 mm - 68 W/m² -
1787951036 26.67° C 96% 1017.1 hPa 0 mm - 71 W/m² -

* Rain latest hour (hover to see other rain measurements)
** Current wind speed in m/s (hover to see current wind gust speed)